Probability
3 0 0 0 0 0 0 3 0 0 3 0 0 0 0 0 0 0 0 6 100 100 100 100 100 100 100 100 100 100 100 100 94 97 68 10 0 0 0 0 0 0 0
0 0 0 0 0 0 0 0 0 0 0 0 0 0 0 0 0 0 0 0 100 100 100 100 100 100 100 100 100 100 100 100 100 97 87 48 0 0 0 0 0 0 0
0 0 0 0 0 0 0 0 0 0 0 0 0 0 0 0 0 0 0 0 0 65 100 100 100 100 100 94 100 100 100 100 97 77 71 48 10 0 0 0 0 0 0
0 0 0 0 0 0 0 0 0 0 0 0 0 0 0 0 0 0 0 0 0 0 23 100 100 100 100 100 100 100 100 100 100 84 45 23 3 0 0 0 0 0 0
16 0 0 0 0 0 0 0 0 0 0 0 0 0 0 0 0 0 0 0 0 0 0 0 94 97 100 97 100 100 100 100 100 100 94 65 16 0 0 0 0 0 0
39 0 0 0 0 0 0 0 0 0 0 0 0 0 0 0 0 0 0 0 0 0 0 0 0 3 87 97 100 100 97 97 97 100 94 58 19 0 0 0 0 0 0
10 3 0 0 0 0 0 0 0 0 0 0 0 0 0 0 0 0 0 0 0 0 0 0 0 0 0 16 65 87 84 77 97 94 94 71 13 0 0 0 0 0 0
0 0 0 0 0 0 0 0 0 0 0 0 0 0 0 0 0 0 0 0 0 0 0 0 0 0 0 0 0 0 6 42 65 90 87 55 0 0 0 0 0 0 0
0 0 0 0 0 0 0 0 0 0 0 0 0 0 0 0 0 0 0 0 0 0 0 0 0 0 0 0 0 0 0 0 16 39 48 26 0 0 0 0 0 0 0
0 0 0 0 0 0 0 0 0 0 0 0 0 0 0 0 0 0 0 0 0 0 0 0 0 0 0 0 0 0 0 0 0 0 3 0 0 0 0 0 0 0 0
0 0 0 0 0 0 0 0 0 0 0 0 0 0 0 0 0 0 0 0 0 0 0 0 0 0 0 0 0 0 0 0 0 0 0 0 0 0 0 0 0 0 0
0 0 0 0 0 0 0 0 0 0 0 0 0 0 0 0 0 0 0 0 0 0 0 0 0 0 0 0 0 0 0 0 0 0 0 0 0 0 0 0 0 0 0
0 0 0 0 0 0 0 0 0 0 0 0 0 0 0 0 0 0 0 0 0 0 0 0 0 0 0 0 0 0 0 0 0 0 0 0 0 0 0 0 0 0 0
0 0 0 0 0 0 0 0 0 0 0 0 0 0 0 0 0 0 0 0 0 0 0 0 0 0 0 0 0 0 0 0 0 0 0 0 0 0 0 0 0 0 0
0 0 0 0 0 0 0 0 0 0 0 0 0 0 0 0 0 0 0 0 0 0 0 0 0 0 0 0 0 0 0 0 0 0 0 0 0 0 0 0 0 0 0
0 0 0 0 0 0 0 0 0 0 0 0 0 0 0 0 0 0 0 0 0 0 0 0 0 0 0 0 0 0 0 0 0 0 0 0 0 0 0 0 0 0 0
0 0 0 0 0 0 0 0 0 0 0 0 0 0 0 0 0 0 0 0 0 0 0 0 0 0 0 0 0 0 0 0 0 0 0 0 0 0 0 0 0 0 0
0 0 0 0 0 0 0 0 0 0 0 0 0 0 0 0 0 0 0 0 0 0 0 0 0 0 0 0 0 0 0 0 0 0 0 0 0 0 0 0 0 0 0
0 0 0 0 0 0 0 0 0 0 0 0 0 0 0 0 0 0 0 0 0 0 0 0 0 0 0 0 0 0 0 0 0 0 0 0 0 0 0 0 0 0 0
0 0 0 0 0 0 0 0 0 0 0 0 0 0 0 0 0 0 0 0 0 0 0 0 0 0 0 0 0 0 0 0 0 0 0 0 0 0 0 0 0 0 0
0 0 0 0 0 0 0 0 0 0 0 0 0 0 0 0 0 0 0 0 0 0 0 0 0 0 0 0 0 0 0 0 0 0 0 0 0 0 0 0 0 0 0
0 0 0 0 0 0 0 0 0 0 0 0 0 0 0 0 0 0 0 0 0 0 0 0 0 0 0 0 0 0 0 0 0 0 0 0 0 0 0 0 0 0 0
0 0 0 0 0 0 0 0 0 0 0 0 0 0 0 0 0 0 0 0 0 0 0 0 0 0 0 0 0 0 0 0 0 0 0 0 0 0 0 0 0 0 0
0 0 0 0 0 0 0 0 0 0 0 0 0 0 0 0 0 0 0 0 0 0 0 0 0 0 0 0 0 0 0 0 0 0 0 0 0 0 0 0 0 0 0
0 0 0 0 0 0 0 0 0 0 0 0 0 0 0 0 0 0 0 0 0 0 0 0 0 0 0 0 0 0 0 0 0 0 0 0 0 0 0 0 0 0 0
0 0 0 0 0 0 0 0 0 0 0 0 0 0 0 0 0 0 0 0 0 0 0 0 0 0 0 0 0 0 0 0 0 0 0 0 0 0 0 0 0 0 0
Height
5911 5910 5909 5907 5905 5903 5900 5898 5895 5892 5891 5889 5888 5887 5887 5887 5887 5888 5887 5887 5887 5887 5885 5882 5881 5879 5878 5876 5874 5873 5871 5870 5868 5867 5866 5864 5863 5862 5861 5860 5859 5859 5859
5909 5907 5905 5904 5901 5899 5897 5895 5892 5888 5886 5885 5884 5883 5882 5882 5882 5883 5883 5882 5882 5882 5881 5879 5877 5875 5874 5873 5872 5870 5868 5867 5865 5863 5862 5861 5859 5858 5857 5857 5856 5856 5855
5904 5902 5900 5899 5897 5895 5893 5891 5889 5885 5883 5881 5880 5878 5877 5877 5877 5878 5878 5877 5877 5876 5876 5875 5873 5871 5870 5869 5868 5867 5865 5864 5862 5860 5858 5857 5855 5854 5853 5852 5852 5851 5851
5898 5896 5894 5893 5891 5890 5888 5886 5884 5881 5879 5877 5876 5874 5873 5872 5872 5872 5872 5872 5871 5870 5870 5870 5868 5866 5865 5864 5863 5863 5861 5859 5858 5856 5854 5852 5850 5849 5849 5848 5847 5847 5846
5891 5889 5888 5886 5884 5883 5881 5879 5878 5876 5875 5873 5871 5869 5868 5867 5867 5866 5866 5865 5864 5864 5863 5863 5862 5861 5860 5859 5859 5858 5856 5855 5853 5852 5850 5848 5846 5844 5843 5843 5842 5842 5841
5885 5883 5881 5879 5877 5876 5874 5872 5871 5869 5868 5866 5865 5864 5862 5862 5861 5860 5860 5859 5858 5857 5857 5857 5856 5856 5855 5854 5853 5853 5851 5849 5848 5847 5846 5843 5841 5840 5839 5838 5837 5836 5836
5877 5876 5874 5871 5869 5868 5867 5865 5864 5862 5861 5859 5859 5857 5856 5855 5854 5854 5853 5853 5852 5851 5850 5850 5850 5850 5850 5849 5848 5847 5846 5844 5843 5842 5841 5839 5837 5835 5834 5833 5832 5831 5830
5869 5868 5866 5864 5861 5859 5858 5857 5855 5855 5853 5852 5851 5850 5849 5848 5847 5847 5846 5845 5845 5844 5844 5843 5843 5844 5844 5844 5843 5841 5839 5839 5838 5837 5835 5834 5832 5831 5830 5828 5827 5826 5825
5860 5860 5858 5856 5853 5850 5848 5846 5845 5845 5844 5843 5842 5841 5840 5840 5839 5839 5838 5838 5837 5837 5837 5837 5837 5837 5837 5837 5836 5835 5834 5833 5832 5831 5830 5829 5828 5826 5825 5823 5822 5822 5821
5850 5849 5847 5846 5844 5841 5838 5836 5835 5834 5833 5833 5832 5832 5832 5831 5830 5830 5830 5829 5829 5830 5830 5830 5830 5830 5830 5830 5830 5829 5827 5826 5826 5825 5824 5823 5822 5821 5820 5818 5817 5816 5816
5841 5839 5836 5835 5833 5830 5828 5826 5824 5822 5822 5822 5822 5822 5822 5821 5820 5820 5820 5820 5821 5821 5821 5822 5822 5822 5823 5823 5823 5822 5820 5819 5818 5818 5818 5817 5816 5816 5815 5813 5812 5811 5811
5831 5829 5827 5824 5821 5819 5817 5815 5813 5812 5811 5811 5812 5811 5811 5811 5811 5810 5811 5811 5812 5813 5813 5814 5814 5814 5815 5815 5816 5815 5813 5812 5811 5811 5811 5810 5810 5811 5810 5808 5808 5807 5807
5822 5820 5817 5813 5811 5808 5807 5805 5803 5802 5801 5801 5802 5802 5802 5802 5801 5800 5802 5803 5803 5804 5805 5806 5806 5806 5806 5807 5808 5807 5806 5804 5804 5804 5804 5804 5804 5805 5804 5803 5803 5803 5802
5810 5809 5806 5803 5801 5799 5798 5796 5794 5792 5791 5790 5791 5792 5792 5792 5791 5791 5791 5793 5794 5795 5796 5797 5797 5797 5798 5798 5799 5799 5798 5798 5797 5797 5797 5798 5798 5798 5797 5797 5797 5798 5797
5799 5798 5796 5794 5792 5791 5790 5788 5786 5784 5782 5781 5781 5782 5782 5782 5782 5781 5782 5783 5784 5785 5786 5787 5789 5790 5790 5790 5790 5790 5791 5791 5790 5790 5790 5792 5792 5792 5791 5791 5792 5792 5792
5789 5788 5787 5786 5784 5783 5782 5781 5779 5777 5775 5774 5774 5774 5774 5773 5772 5772 5772 5774 5775 5776 5777 5779 5781 5782 5783 5782 5782 5783 5784 5784 5784 5784 5785 5786 5786 5786 5786 5786 5786 5787 5788
5781 5780 5779 5778 5777 5777 5776 5774 5772 5771 5769 5768 5767 5766 5766 5765 5764 5764 5765 5766 5767 5768 5769 5771 5772 5774 5775 5775 5776 5776 5776 5777 5778 5778 5779 5780 5781 5781 5781 5781 5781 5781 5782
5773 5773 5772 5771 5771 5771 5770 5769 5767 5766 5764 5762 5760 5759 5758 5758 5758 5757 5758 5758 5759 5760 5762 5764 5765 5767 5769 5769 5769 5769 5770 5770 5771 5772 5773 5774 5775 5776 5776 5776 5776 5776 5777
5765 5765 5764 5764 5764 5764 5764 5763 5762 5760 5759 5757 5756 5754 5752 5751 5751 5751 5751 5752 5753 5754 5757 5759 5760 5761 5763 5763 5763 5763 5763 5764 5764 5765 5766 5767 5768 5769 5770 5770 5770 5771 5773
5757 5757 5757 5756 5756 5756 5756 5756 5755 5754 5753 5752 5751 5749 5748 5748 5747 5747 5747 5748 5749 5750 5751 5752 5753 5754 5756 5757 5757 5757 5757 5758 5758 5759 5759 5761 5762 5763 5764 5765 5765 5766 5768
5749 5749 5748 5748 5748 5747 5747 5747 5746 5746 5745 5745 5744 5743 5743 5743 5743 5743 5743 5743 5744 5744 5745 5745 5746 5747 5748 5749 5750 5751 5751 5752 5753 5753 5754 5755 5756 5757 5758 5759 5759 5760 5761
5740 5740 5739 5740 5740 5739 5738 5737 5737 5736 5736 5736 5735 5735 5736 5736 5736 5736 5736 5736 5737 5738 5738 5738 5738 5739 5740 5742 5743 5744 5744 5745 5746 5748 5748 5749 5750 5751 5753 5754 5754 5754 5755
5732 5731 5730 5730 5730 5730 5730 5729 5728 5727 5726 5726 5726 5726 5726 5726 5726 5726 5727 5728 5728 5729 5729 5730 5729 5730 5731 5733 5734 5736 5737 5739 5739 5740 5741 5742 5743 5744 5746 5747 5747 5748 5748
5723 5723 5722 5722 5721 5720 5720 5719 5718 5717 5716 5715 5715 5715 5715 5714 5714 5715 5716 5716 5717 5718 5719 5720 5720 5719 5721 5722 5724 5726 5728 5730 5732 5733 5734 5735 5736 5737 5738 5739 5740 5740 5740
5715 5715 5714 5714 5713 5711 5711 5710 5709 5708 5707 5706 5705 5704 5703 5703 5703 5703 5704 5704 5705 5706 5707 5708 5708 5708 5709 5711 5713 5715 5717 5719 5722 5724 5725 5727 5728 5728 5729 5730 5732 5733 5732
5708 5708 5707 5705 5704 5704 5703 5703 5702 5700 5699 5697 5696 5695 5694 5694 5694 5693 5693 5693 5693 5693 5695 5696 5696 5697 5698 5700 5702 5704 5706 5708 5709 5712 5715 5717 5718 5720 5721 5721 5722 5724 5724
Wind_Speed
17 20 23 26 28 29 29 28 27 24 22 20 19 18 18 19 19 18 17 16 18 20 21 20 19 18 16 14 14 14 13 14 15 14 14 14 14 15 14 15 17 19 20
18 21 24 27 29 29 28 26 25 24 22 21 20 20 20 21 22 20 19 19 19 20 21 21 19 17 15 14 14 13 13 14 15 15 15 15 16 16 17 16 17 19 21
22 24 26 28 31 31 29 27 26 25 22 21 22 22 22 22 23 22 22 22 21 21 22 23 21 17 15 15 14 13 13 14 16 16 18 18 18 18 18 17 18 19 22
28 29 30 32 34 35 33 31 29 27 24 22 23 24 24 25 25 25 26 26 24 24 24 25 24 21 18 17 16 16 15 15 17 18 19 20 20 20 20 20 19 20 21
32 34 36 36 38 37 35 33 32 30 28 26 25 24 25 26 26 27 29 29 27 27 27 26 25 23 22 20 19 19 18 17 18 19 20 21 21 21 21 21 21 21 22
35 38 40 41 41 40 37 35 34 32 30 29 26 25 26 26 27 27 28 29 30 30 29 27 26 25 23 21 22 22 21 18 19 21 20 21 21 21 21 21 21 22 23
40 42 44 45 45 43 40 37 35 33 31 30 28 27 27 27 28 29 29 31 32 31 31 28 27 26 23 23 24 22 20 19 20 21 20 20 21 21 21 21 21 20 21
44 45 46 48 48 47 43 41 38 36 35 33 31 31 31 31 31 32 33 33 32 31 30 29 29 27 25 25 24 21 21 22 22 20 19 19 20 21 21 20 20 20 20
46 47 47 47 47 47 47 46 44 41 40 38 35 33 33 34 34 34 35 34 32 31 30 29 30 30 27 25 23 21 23 23 22 20 19 19 19 19 19 18 19 19 19
48 48 47 46 46 47 48 49 48 46 44 41 39 36 35 35 36 35 36 34 32 32 33 33 32 31 29 26 23 24 25 23 23 21 19 19 18 18 18 17 16 16 15
46 46 46 46 47 47 48 49 49 47 44 42 40 38 36 36 36 35 35 34 33 33 35 35 34 32 29 27 26 25 25 23 22 21 20 19 18 19 19 17 15 12 12
45 46 47 47 47 46 47 48 47 44 41 38 37 35 34 35 35 35 35 34 34 33 30 30 31 32 30 29 27 25 24 22 21 20 19 18 18 19 19 18 16 12 12
46 46 47 46 45 44 44 42 40 37 37 37 36 34 33 34 36 37 38 36 36 35 32 30 31 34 32 29 27 25 24 23 21 19 19 18 18 20 21 19 17 15 14
49 48 46 44 42 40 37 34 33 32 32 33 35 36 35 34 33 34 37 38 38 37 34 31 31 30 29 26 25 24 22 21 20 19 18 18 19 21 21 20 18 17 16
47 45 42 40 37 34 31 30 28 26 25 26 28 30 32 33 32 33 36 36 35 35 31 27 26 24 23 23 23 22 21 20 20 19 18 19 20 22 22 19 19 19 18
41 39 37 36 34 32 29 27 26 25 23 23 23 25 27 29 30 30 31 31 31 29 28 28 25 22 22 22 21 21 21 20 19 19 19 20 22 23 22 19 19 18 17
35 35 36 34 31 30 27 25 23 21 21 21 24 25 27 27 28 28 28 27 26 25 25 26 25 22 23 22 21 21 21 20 19 19 19 21 21 23 23 20 19 19 18
33 33 34 33 30 28 25 23 20 19 20 19 20 21 23 25 25 24 24 24 23 21 20 20 20 20 22 22 21 20 18 19 20 20 20 20 21 21 22 21 19 19 19
32 32 32 31 30 29 26 23 21 19 19 19 18 17 18 18 17 16 17 18 18 18 20 22 22 21 22 22 20 18 19 21 21 21 22 21 21 20 20 19 18 18 19
33 33 33 32 31 31 29 28 27 24 22 21 19 18 18 19 18 17 17 18 19 21 22 23 24 23 23 22 21 20 20 21 22 23 24 22 21 20 19 19 18 18 18
33 33 33 33 32 31 31 32 31 29 28 26 25 24 23 22 22 22 21 22 23 23 24 24 24 23 23 23 22 22 22 22 23 23 25 24 22 22 21 20 20 20 20
31 31 32 31 30 30 30 30 31 30 30 29 29 28 28 28 28 28 28 27 27 27 27 26 26 26 26 26 25 25 25 24 24 25 26 25 24 24 23 22 22 23 22
31 32 32 32 31 29 28 28 28 28 28 27 27 27 28 29 30 31 31 32 32 32 30 29 29 30 30 29 29 28 28 27 27 27 28 27 25 23 22 22 22 24 26
32 32 32 32 31 29 28 28 27 27 27 27 27 27 27 27 28 29 30 31 33 33 33 33 34 34 34 33 33 33 33 32 30 28 28 27 26 26 26 26 26 26 25
28 28 29 29 28 28 29 29 28 27 27 28 28 28 27 26 25 26 29 31 33 34 34 35 37 38 38 37 37 37 36 36 35 35 35 34 33 32 31 29 29 29 27
23 24 25 26 27 27 27 25 24 24 25 27 28 27 26 25 24 25 27 30 33 35 37 37 38 40 40 41 41 40 40 40 40 39 39 40 40 38 36 34 34 33 30
Wind_Direction
308 309 313 318 322 324 324 322 319 302 285 278 280 282 283 286 289 288 280 281 286 288 290 297 303 306 306 307 311 313 312 307 303 301 301 299 294 288 284 273 263 256 252
304 303 307 314 319 322 319 317 321 313 290 276 274 274 274 277 282 286 283 282 283 284 288 292 295 301 304 304 308 312 309 305 302 299 298 297 291 283 280 275 269 263 256
307 307 307 311 315 317 315 311 313 318 300 279 272 270 268 270 276 282 284 284 283 281 282 285 286 290 295 296 298 301 302 301 300 296 294 293 289 282 278 275 270 267 262
307 308 308 309 313 314 311 307 305 310 306 285 275 271 268 268 272 277 282 286 286 285 284 283 284 286 287 288 292 296 299 300 299 296 292 290 287 283 279 276 271 267 266
300 302 305 308 311 310 307 302 301 299 301 290 278 271 268 270 273 277 281 284 284 283 282 280 280 283 284 289 294 295 296 295 297 299 289 285 284 281 277 274 271 267 266
292 295 299 303 306 306 303 298 297 295 293 291 283 274 271 272 275 277 278 281 281 280 280 278 276 277 280 288 292 293 292 291 294 299 292 281 280 278 276 275 271 266 264
288 290 293 296 299 301 299 296 293 292 289 285 282 278 274 275 276 275 277 280 279 277 276 274 272 272 275 284 288 291 290 287 287 293 295 284 278 275 275 276 274 267 263
286 288 289 292 294 296 295 293 290 287 286 283 280 278 277 276 276 273 274 277 277 273 271 268 267 269 272 277 282 290 292 288 284 287 292 286 278 275 276 277 276 267 263
283 284 285 288 290 291 291 291 290 287 283 280 278 276 276 275 275 272 270 271 272 271 268 262 263 267 270 274 279 286 285 286 286 287 290 287 279 276 280 279 278 273 267
283 285 286 287 287 287 287 287 287 285 282 278 276 274 274 274 272 270 265 265 266 267 265 260 262 266 268 272 276 280 281 283 287 288 288 286 277 272 277 279 284 276 260
285 287 288 289 287 285 284 284 283 282 280 277 275 272 268 269 270 267 259 259 262 264 264 259 260 262 263 267 274 276 279 281 285 287 286 284 277 270 272 277 280 267 249
286 288 289 289 288 286 283 282 281 279 277 274 273 269 265 264 267 265 257 257 258 261 260 256 255 258 260 265 269 272 276 280 283 284 283 282 277 269 268 270 269 261 261
287 289 290 291 290 287 286 285 283 279 274 269 267 264 265 268 271 265 258 257 256 256 258 257 257 257 257 260 264 268 273 277 278 275 275 277 275 269 263 263 262 259 258
288 290 291 292 292 292 292 290 286 281 275 268 265 265 266 269 268 263 259 258 255 254 256 257 258 255 252 255 261 268 272 273 269 265 268 271 269 264 257 255 259 259 259
287 288 290 291 293 295 298 297 290 282 273 266 264 264 265 266 264 261 259 256 251 250 253 253 248 249 252 256 263 267 267 266 265 264 265 265 262 259 257 255 257 261 267
283 285 287 289 294 298 304 304 300 286 274 267 264 263 261 260 259 255 252 248 244 245 249 248 244 243 253 260 264 262 260 261 264 266 265 263 261 261 260 255 253 262 267
282 284 285 287 293 299 304 307 304 290 277 267 260 257 255 255 251 245 240 236 237 241 247 249 247 248 255 261 261 257 256 259 262 263 262 261 260 261 260 257 254 259 263
279 281 284 286 289 294 298 301 298 294 289 287 279 269 257 250 245 242 241 241 242 243 249 255 255 256 258 258 256 252 255 262 264 260 261 262 257 258 260 260 259 262 262
275 277 280 284 286 286 287 288 288 288 288 289 290 290 279 268 264 263 258 254 251 251 254 255 254 253 254 255 257 257 260 266 268 264 265 266 258 255 258 259 260 265 263
273 274 277 281 283 282 279 278 279 280 279 279 279 280 281 280 276 271 265 260 257 256 256 255 254 254 253 253 255 258 262 263 265 264 263 265 260 255 252 255 255 257 259
277 277 278 280 282 281 280 279 278 277 275 273 271 272 272 271 269 266 263 260 258 256 255 254 254 255 256 256 256 258 262 262 259 259 260 261 259 254 251 253 250 249 249
279 280 280 281 282 283 282 280 278 277 274 272 271 271 271 270 268 266 263 260 259 257 256 255 256 257 258 257 256 257 260 262 259 256 257 258 257 253 251 257 254 250 248
281 283 283 284 285 286 283 281 280 279 278 276 275 274 272 272 271 269 266 264 262 261 260 259 259 259 257 256 255 255 257 259 258 258 257 252 250 251 252 254 253 253 253
283 284 284 285 287 289 289 288 286 284 282 281 280 279 277 275 273 270 267 265 262 260 260 258 257 255 253 252 254 255 254 253 252 253 249 243 248 254 256 256 255 256 257
284 284 283 283 285 287 288 289 290 290 290 289 288 288 285 281 276 269 264 260 257 254 252 250 250 251 250 249 249 250 249 247 247 247 247 248 252 257 257 255 254 256 258
286 286 286 284 284 285 287 290 294 295 295 296 296 296 294 292 286 278 270 263 258 252 248 245 245 247 248 248 247 247 246 245 245 246 247 249 251 254 255 254 253 254 257